Content
SEND FEEDBACK

Daily
Averages
Monthly
Summary
Mexico

LEONA VICARIO, QUINTANA ROO


Home > North America > Mexico > Quintana Roo
Elevation: 26 feet     Latitude: 20 59N     Longitude: 087 12W

WEATHER
 
SELECT A DAY
Number of Records: 163,905;   Date Range: 1/1/95 - 8/10/14
 
SHARE

PRINT THIS DATA

[ ← Previous Day ]
WEATHER ALMANAC - MARCH 6, 2013
[ Next Day → ]
[ °C ]   °F
Weather ElementAverageHighLow
Temperature69.2 °F80.6 °F (11:47 am)57.2 °F (5:46 am)
Dewpoint58.4 °F62.6 °F (7:40 am)53.6 °F (1:47 pm)
Humidity72.2 %100 % (5:46 am)42 % (1:47 pm)
Barometer30.14 in30.19 in (9:47 am)30.07 in (2:49 am)
Wind Speed5.9 mph13.8 mph (8:48 am)
Weather ElementAverage
Visibility7 mi
Wind DirectionSSW (208.7 °)

Weather ElementTotal
Precipitation---
Cooling Degree Days3.9 (Base 65)
Growing Degree Days18.9 (Base 50)
Averaged from 23 records on March 6, 2013
WEATHER CONDITIONS BREAKOUT
WIND DIRECTION BREAKOUT
WEATHER BY HOUR - MARCH 6, 2013
[ °C ]   °F
Local TimeTemperatureDewpointHumidityBarometerVisibilityWind DirectionWind SpeedGust SpeedPrecipitationEventsConditions
1:45 AM62.6 °F59.0 °F88 %30.08 in7.0 miCalmMostly Cloudy
2:49 AM59.0 °F57.2 °F94 %30.07 in7.0 miNW (310°)3.5 mphPartly Cloudy
3:40 AM59.0 °F57.2 °F94 %30.07 in7.0 miNW (320°)4.6 mphPartly Cloudy
4:51 AM59.0 °F57.2 °F94 %30.09 in7.0 miWNW (300°)3.5 mphPartly Cloudy
5:46 AM57.2 °F57.2 °F100 %30.09 in7.0 miWNW (300°)3.5 mphScattered Clouds
6:45 AM59.0 °F57.2 °F94 %30.14 in7.0 miNW (320°)5.8 mphMostly Cloudy
7:40 AM66.2 °F62.6 °F88 %30.17 in7.0 miNNW (340°)2.3 mphMostly Cloudy
8:48 AM77.0 °F59.0 °F54 %30.17 in7.0 miEast (90°)13.8 mphMostly Cloudy
9:47 AM78.8 °F57.2 °F47 %30.19 in7.0 miNorth (360°)4.6 mphMostly Cloudy
10:42 AM78.8 °F59.0 °F51 %30.19 in7.0 miNNE (30°)6.9 mphMostly Cloudy
11:47 AM80.6 °F57.2 °F45 %30.16 in7.0 miENE (60°)6.9 mphMostly Cloudy
12:44 PM78.8 °F57.2 °F47 %30.14 in7.0 miNNW (330°)11.5 mphMostly Cloudy
1:47 PM78.8 °F53.6 °F42 %30.12 in7.0 miNNE (20°)8.1 mphMostly Cloudy
2:41 PM78.8 °F55.4 °F44 %30.11 in7.0 miNorth (10°)11.5 mphScattered Clouds
3:43 PM77.0 °F55.4 °F47 %30.10 in7.0 miNNE (20°)8.1 mphPartly Cloudy
4:42 PM77.0 °F57.2 °F50 %30.12 in7.0 miNNE (30°)6.9 mphPartly Cloudy
5:40 PM73.4 °F59.0 °F61 %30.13 in7.0 miNorth (10°)2.3 mphPartly Cloudy
6:40 PM69.8 °F60.8 °F73 %30.16 in7.0 miNorth (360°)4.6 mphScattered Clouds
7:48 PM68.0 °F60.8 °F78 %30.17 in7.0 miNorth (360°)4.6 mphClear
8:41 PM64.4 °F60.8 °F88 %30.16 in7.0 miNNW (330°)4.6 mphClear
9:48 PM64.4 °F60.8 °F88 %30.18 in7.0 miNW (310°)5.8 mphClear
10:47 PM62.6 °F60.8 °F94 %30.18 in7.0 miWNW (290°)5.8 mphClear
11:46 PM60.8 °F60.8 °F100 %30.15 in7.0 miWNW (300°)5.8 mphClear
Hourly data recorded from MMUN, located miles away from Leona Vicario, Quintana Roo







STORIES FROM OUR PARTNERS